| time (UTC) | temp F | wind direction | speed MPH | gust MPH | rain 1hr in | rain 24hr in | rain mn in | humidity % | barometer mb |
| 20260507054559 | 55 | 193 | 0.0 | 4.0 | 0.00 | 0.86 | 0.00 | 88 | 1013.7 |
| 20260507054332 | 56 | 193 | 0.0 | 4.0 | 0.00 | 4.29 | 0.00 | 88 | 1013.7 |
| 20260507053814 | 55 | 193 | 0.0 | 0.0 | 0.00 | 4.29 | 0.00 | 88 | 1013.7 |
| 20260507053343 | 55 | 193 | 0.0 | 0.0 | 0.00 | 4.29 | 0.00 | 88 | 1013.6 |
| 20260507053025 | 54 | 193 | 0.0 | 0.0 | 0.00 | 0.86 | 0.00 | 88 | 1013.5 |
| 20260507052826 | 54 | 70 | 0.0 | 0.0 | 0.00 | 4.29 | 0.00 | 87 | 1013.5 |
| 20260507052327 | 54 | 75 | 0.0 | 0.0 | 0.00 | 4.29 | 0.00 | 87 | 1013.5 |
| 20260507051837 | 53 | 75 | 0.0 | 0.0 | 0.00 | 4.29 | 0.00 | 87 | 1013.4 |
| 20260507051515 | 52 | 75 | 0.0 | 0.0 | 0.00 | 0.86 | 0.00 | 87 | 1013.5 |
| 20260507051336 | 52 | 75 | 0.0 | 0.0 | 0.00 | 4.29 | 0.00 | 87 | 1013.5 |
| 20260507050816 | 51 | 75 | 0.0 | 0.0 | 0.00 | 4.29 | 0.00 | 88 | 1013.5 |
| 20260507050325 | 51 | 75 | 0.0 | 0.0 | 0.00 | 4.29 | 0.00 | 88 | 1013.5 |
| 20260507050049 | 51 | 75 | 0.0 | 0.0 | 0.00 | 0.87 | 0.00 | 88 | 1013.4 |
| 20260507045853 | 51 | 75 | 0.0 | 0.0 | 0.00 | 4.33 | 0.00 | 88 | 1013.4 |
| 20260507045314 | 51 | 75 | 0.0 | 0.0 | 0.00 | 4.33 | 0.00 | 87 | 1013.4 |
| 20260507044816 | 51 | 75 | 0.0 | 0.0 | 0.00 | 4.33 | 0.00 | 87 | 1013.3 |
| 20260507044530 | 50 | 75 | 0.0 | 0.0 | 0.00 | 0.87 | 0.00 | 87 | 1013.3 |
| 20260507044325 | 50 | 75 | 0.0 | 0.0 | 0.00 | 4.33 | 0.00 | 87 | 1013.3 |
| 20260507043855 | 50 | 75 | 0.0 | 0.0 | 0.00 | 4.33 | 0.00 | 88 | 1013.3 |
| 20260507043356 | 50 | 75 | 0.0 | 0.0 | 0.00 | 4.33 | 0.00 | 88 | 1013.3 |
| 20260507043013 | 49 | 75 | 0.0 | 0.0 | 0.00 | 0.87 | 0.00 | 88 | 1013.3 |
| 20260507042822 | 50 | 75 | 0.0 | 0.0 | 0.00 | 4.33 | 0.00 | 88 | 1013.2 |
| 20260507042324 | 50 | 75 | 0.0 | 0.0 | 0.00 | 4.33 | 0.00 | 88 | 1013.1 |
| 20260507041833 | 49 | 75 | 0.0 | 0.0 | 0.00 | 4.33 | 0.00 | 88 | 1013.2 |
| 20260507041515 | 49 | 75 | 0.0 | 0.0 | 0.00 | 0.87 | 0.00 | 88 | 1013.2 |
| 20260507041340 | 49 | 75 | 0.0 | 0.0 | 0.00 | 4.33 | 0.00 | 88 | 1013.2 |
| 20260507040821 | 49 | 75 | 0.0 | 0.0 | 0.00 | 4.33 | 0.00 | 88 | 1013.1 |
| 20260507040323 | 49 | 75 | 0.0 | 0.0 | 0.00 | 4.33 | 0.00 | 88 | 1013.1 |
| 20260507040036 | 49 | 75 | 0.0 | 0.0 | 0.00 | 0.88 | 0.00 | 88 | 1013.0 |
| 20260507035831 | 49 | 75 | 0.0 | 0.0 | 0.00 | 4.41 | 0.00 | 88 | 1013.1 |
| 20260507035330 | 49 | 75 | 0.0 | 0.0 | 0.00 | 4.41 | 0.00 | 88 | 1013.2 |
| 20260507034832 | 50 | 75 | 0.0 | 0.0 | 0.00 | 4.41 | 0.00 | 88 | 1013.2 |
| 20260507034526 | 49 | 75 | 0.0 | 0.0 | 0.00 | 0.88 | 0.00 | 88 | 1013.2 |
| 20260507034341 | 50 | 75 | 0.0 | 0.0 | 0.00 | 4.41 | 0.00 | 88 | 1013.2 |
| 20260507033850 | 50 | 75 | 0.0 | 0.0 | 0.00 | 4.41 | 0.00 | 88 | 1013.1 |
| 20260507033331 | 50 | 75 | 0.0 | 0.0 | 0.00 | 4.41 | 0.00 | 88 | 1013.2 |
| 20260507033039 | 50 | 75 | 0.0 | 0.0 | 0.00 | 0.88 | 0.00 | 88 | 1013.2 |
| 20260507032837 | 50 | 75 | 0.0 | 0.0 | 0.00 | 4.41 | 0.00 | 88 | 1013.2 |
| 20260507032319 | 50 | 75 | 0.0 | 0.0 | 0.00 | 4.41 | 0.00 | 88 | 1013.1 |
| 20260507031819 | 50 | 75 | 0.0 | 0.0 | 0.00 | 4.41 | 0.00 | 88 | 1013.1 |
| 20260507031529 | 50 | 75 | 0.0 | 0.0 | 0.00 | 0.88 | 0.00 | 88 | 1013.2 |
| 20260507031329 | 51 | 75 | 0.0 | 0.0 | 0.00 | 4.41 | 0.00 | 88 | 1013.1 |
| 20260507030830 | 51 | 75 | 0.0 | 0.0 | 0.00 | 4.41 | 0.00 | 88 | 1013.2 |
| 20260507030338 | 51 | 75 | 0.0 | 0.0 | 0.00 | 4.41 | 0.00 | 88 | 1013.2 |
| 20260507030018 | 51 | 75 | 0.0 | 0.0 | 0.00 | 1.54 | 0.00 | 88 | 1013.0 |
| 20260507025852 | 51 | 75 | 0.0 | 0.0 | 0.00 | 7.72 | 0.00 | 88 | 1013.1 |
| 20260507025339 | 51 | 75 | 0.0 | 0.0 | 0.00 | 7.72 | 0.00 | 88 | 1013.1 |
| 20260507024819 | 51 | 75 | 0.0 | 0.0 | 0.00 | 7.72 | 0.00 | 88 | 1013.2 |
| 20260507024524 | 51 | 75 | 0.0 | 0.0 | 0.00 | 1.54 | 0.00 | 88 | 1013.2 |
| 20260507024327 | 52 | 75 | 0.0 | 0.0 | 0.00 | 7.72 | 0.00 | 88 | 1013.1 |
| 20260507023830 | 52 | 75 | 0.0 | 0.0 | 0.00 | 7.72 | 0.00 | 88 | 1013.2 |
| 20260507023338 | 52 | 75 | 0.0 | 0.0 | 0.00 | 7.72 | 0.00 | 88 | 1013.1 |
| 20260507023016 | 51 | 75 | 0.0 | 0.0 | 0.00 | 1.54 | 0.00 | 88 | 1013.1 |
| 20260507022820 | 52 | 75 | 0.0 | 0.0 | 0.00 | 7.72 | 0.00 | 88 | 1013.0 |
| 20260507022328 | 52 | 75 | 0.0 | 0.0 | 0.00 | 7.72 | 0.00 | 88 | 1013.1 |
| 20260507021829 | 53 | 75 | 0.0 | 0.0 | 0.00 | 7.72 | 0.00 | 88 | 1013.1 |
| 20260507021546 | 52 | 75 | 0.0 | 0.0 | 0.00 | 1.54 | 0.00 | 88 | 1013.0 |
| 20260507021358 | 53 | 75 | 0.0 | 0.0 | 0.00 | 7.72 | 0.00 | 88 | 1013.2 |
| 20260507020817 | 53 | 75 | 0.0 | 0.0 | 0.00 | 7.72 | 0.00 | 88 | 1013.1 |
| 20260507020318 | 53 | 75 | 0.0 | 0.0 | 0.00 | 7.72 | 0.00 | 88 | 1013.0 |
| 20260507020017 | 53 | 75 | 0.0 | 0.0 | 0.00 | 1.63 | 0.00 | 88 | 1013.1 |
| 20260507015827 | 53 | 75 | 0.0 | 0.0 | 0.00 | 8.15 | 0.00 | 88 | 1013.1 |
| 20260507015322 | 53 | 75 | 0.0 | 0.0 | 0.00 | 8.15 | 0.00 | 88 | 1013.1 |
| 20260507014831 | 53 | 59 | 0.0 | 0.0 | 0.00 | 8.15 | 0.00 | 88 | 1013.1 |
| 20260507014506 | 53 | 65 | 0.0 | 0.0 | 0.00 | 1.63 | 0.00 | 88 | 1013.1 |
| 20260507014333 | 53 | 105 | 0.0 | 0.0 | 0.00 | 8.15 | 0.00 | 88 | 1013.1 |
| 20260507013821 | 53 | 86 | 0.0 | 0.0 | 0.00 | 8.15 | 0.00 | 88 | 1013.0 |
| 20260507013322 | 53 | 82 | 0.0 | 0.0 | 0.00 | 8.15 | 0.00 | 88 | 1013.1 |
| 20260507013042 | 53 | 99 | 0.0 | 0.0 | 0.00 | 1.63 | 0.00 | 88 | 1013.0 |
| 20260507012852 | 54 | 99 | 0.0 | 0.0 | 0.00 | 8.15 | 0.00 | 88 | 1013.1 |
| 20260507012358 | 54 | 99 | 0.0 | 0.0 | 0.00 | 8.15 | 0.00 | 88 | 1013.1 |
| 20260507011818 | 54 | 83 | 0.0 | 0.0 | 0.00 | 8.15 | 0.00 | 88 | 1013.1 |
| 20260507011548 | 53 | 76 | 0.0 | 0.0 | 0.00 | 1.63 | 0.00 | 88 | 1013.0 |
| 20260507011320 | 54 | 74 | 0.0 | 0.0 | 0.00 | 8.15 | 0.00 | 88 | 1013.0 |
| 20260507010829 | 54 | 82 | 0.0 | 0.0 | 0.00 | 8.15 | 0.00 | 88 | 1013.0 |
| 20260507010338 | 54 | 82 | 0.0 | 0.0 | 0.00 | 8.15 | 0.00 | 88 | 1013.0 |
| 20260507010015 | 53 | 78 | 0.0 | 0.0 | 0.00 | 1.71 | 0.00 | 88 | 1013.0 |
| 20260507005814 | 54 | 78 | 0.0 | 0.0 | 0.00 | 8.54 | 0.00 | 88 | 1013.1 |
| 20260507005313 | 54 | 90 | 0.0 | 0.0 | 0.00 | 8.54 | 0.00 | 88 | 1013.1 |
| 20260507004822 | 54 | 87 | 0.0 | 0.0 | 0.00 | 8.54 | 0.00 | 88 | 1013.1 |
| 20260507004547 | 53 | 88 | 0.0 | 0.0 | 0.00 | 1.71 | 0.00 | 88 | 1013.1 |
| 20260507004324 | 54 | 67 | 0.0 | 0.0 | 0.00 | 8.54 | 0.00 | 88 | 1013.1 |
| 20260507003833 | 54 | 84 | 0.0 | 0.0 | 0.00 | 8.54 | 0.00 | 88 | 1013.1 |
| 20260507003335 | 54 | 91 | 0.0 | 0.0 | 0.00 | 8.54 | 0.00 | 88 | 1013.1 |
| 20260507003029 | 53 | 66 | 0.0 | 0.0 | 0.00 | 1.71 | 0.00 | 88 | 1013.0 |
| 20260507002827 | 54 | 93 | 0.0 | 0.0 | 0.00 | 8.54 | 0.00 | 88 | 1013.1 |
| 20260507002328 | 54 | 79 | 0.0 | 0.0 | 0.00 | 8.54 | 0.00 | 88 | 1013.2 |
| 20260507001837 | 54 | 81 | 0.0 | 0.0 | 0.00 | 8.54 | 0.00 | 88 | 1013.0 |
| 20260507001514 | 53 | 84 | 0.0 | 0.0 | 0.00 | 1.71 | 0.00 | 88 | 1013.0 |
| 20260507001339 | 54 | 84 | 0.0 | 1.0 | 0.00 | 8.54 | 0.00 | 88 | 1013.0 |
| 20260507000837 | 54 | 70 | 0.0 | 2.0 | 0.00 | 8.54 | 0.00 | 88 | 1013.0 |
| 20260507000321 | 54 | 70 | 0.0 | 2.0 | 0.00 | 8.54 | 0.00 | 88 | 1013.1 |
| 20260507000058 | 54 | 70 | 0.0 | 2.0 | 0.00 | 2.23 | 0.00 | 88 | 1013.2 |
| 20260506235820 | 54 | 91 | 0.0 | 0.0 | 0.00 | 1.11 | 0.00 | 88 | 1013.1 |
| 20260506235329 | 54 | 91 | 0.0 | 0.0 | 0.00 | 1.11 | 0.00 | 88 | 1013.2 |
| 20260506234830 | 54 | 91 | 0.0 | 0.0 | 0.00 | 1.11 | 0.00 | 88 | 1013.2 |
| 20260506234559 | 54 | 91 | 0.0 | 0.0 | 0.00 | 2.23 | 0.00 | 88 | 1013.1 |
| 20260506234400 | 54 | 91 | 0.0 | 0.0 | 0.00 | 1.11 | 0.00 | 88 | 1013.2 |
| 20260506233839 | 54 | 91 | 0.0 | 1.0 | 0.00 | 1.11 | 0.00 | 88 | 1013.2 |
| 20260506233324 | 54 | 91 | 0.0 | 4.0 | 0.00 | 1.11 | 0.00 | 88 | 1013.1 |
| 20260506233101 | 54 | 91 | 0.0 | 4.0 | 0.00 | 2.23 | 0.00 | 88 | 1013.1 |
| 20260506232829 | 54 | 91 | 0.0 | 6.0 | 0.00 | 1.11 | 0.00 | 88 | 1013.1 |
| 20260506232346 | 55 | 98 | 3.0 | 6.0 | 0.00 | 1.11 | 0.00 | 88 | 1013.1 |
| 20260506231833 | 55 | 195 | 0.0 | 0.0 | 0.00 | 1.11 | 0.00 | 88 | 1013.3 |
| 20260506231601 | 54 | 195 | 0.0 | 0.0 | 0.00 | 2.23 | 0.00 | 88 | 1013.2 |
| 20260506231314 | 55 | 195 | 0.0 | 0.0 | 0.00 | 1.11 | 0.00 | 88 | 1013.3 |
| 20260506230326 | 54 | 195 | 0.0 | 0.0 | 0.00 | 1.11 | 0.00 | 88 | 1013.2 |
| 20260506230100 | 54 | 195 | 0.0 | 0.0 | 0.00 | 3.14 | 0.00 | 88 | 1013.2 |
| 20260506225829 | 55 | 195 | 0.0 | 0.0 | 0.00 | 1.57 | 0.00 | 88 | 1013.2 |
| 20260506225337 | 55 | 195 | 0.0 | 0.0 | 0.00 | 1.57 | 0.00 | 88 | 1013.2 |
| 20260506224839 | 55 | 195 | 0.0 | 0.0 | 0.00 | 1.57 | 0.00 | 88 | 1013.1 |
| 20260506224528 | 55 | 195 | 0.0 | 0.0 | 0.00 | 3.14 | 0.00 | 88 | 1013.2 |
| 20260506224326 | 55 | 195 | 0.0 | 0.0 | 0.00 | 1.57 | 0.00 | 88 | 1013.1 |
| 20260506223914 | 55 | 195 | 0.0 | 0.0 | 0.00 | 1.57 | 0.00 | 88 | 1013.1 |
| 20260506223336 | 55 | 195 | 0.0 | 0.0 | 0.00 | 1.57 | 0.00 | 88 | 1013.2 |
| 20260506223058 | 55 | 195 | 0.0 | 0.0 | 0.00 | 3.14 | 0.00 | 88 | 1013.1 |
| 20260506222816 | 55 | 195 | 0.0 | 0.0 | 0.00 | 1.57 | 0.00 | 88 | 1013.2 |
| 20260506222324 | 56 | 195 | 0.0 | 0.0 | 0.00 | 1.57 | 0.00 | 88 | 1013.2 |
| 20260506221825 | 56 | 195 | 0.0 | 0.0 | 0.00 | 1.57 | 0.00 | 88 | 1013.2 |
| 20260506221546 | 55 | 195 | 0.0 | 0.0 | 0.00 | 3.14 | 0.00 | 88 | 1013.2 |
| 20260506221326 | 56 | 195 | 0.0 | 0.0 | 0.00 | 1.57 | 0.00 | 88 | 1013.1 |
| 20260506220814 | 56 | 195 | 0.0 | 0.0 | 0.00 | 1.57 | 0.00 | 88 | 1013.2 |
| 20260506220315 | 56 | 195 | 0.0 | 0.0 | 0.00 | 1.57 | 0.00 | 88 | 1013.1 |
| 20260506220037 | 56 | 195 | 0.0 | 0.0 | 0.00 | 3.14 | 3.14 | 88 | 1013.0 |
| 20260506215844 | 56 | 195 | 0.0 | 0.0 | 0.00 | 1.57 | 3.14 | 88 | 1013.1 |
| 20260506215325 | 56 | 195 | 0.0 | 0.0 | 0.00 | 1.57 | 3.14 | 88 | 1013.0 |
| 20260506214833 | 57 | 195 | 0.0 | 0.0 | 0.00 | 1.57 | 3.14 | 88 | 1013.1 |
| 20260506214507 | 56 | 195 | 0.0 | 0.0 | 0.00 | 3.14 | 3.14 | 88 | 1013.1 |
| 20260506214334 | 57 | 195 | 0.0 | 0.0 | 0.00 | 1.57 | 3.14 | 88 | 1013.1 |
| 20260506213828 | 57 | 195 | 0.0 | 0.0 | 0.00 | 1.57 | 3.14 | 88 | 1013.0 |
| 20260506213323 | 57 | 195 | 0.0 | 0.0 | 0.00 | 1.57 | 3.14 | 88 | 1013.0 |
| 20260506213038 | 57 | 195 | 0.0 | 0.0 | 0.00 | 3.14 | 3.14 | 88 | 1013.0 |
| 20260506212817 | 57 | 195 | 0.0 | 0.0 | 0.00 | 1.57 | 3.14 | 88 | 1013.1 |
| 20260506212345 | 57 | 195 | 0.0 | 0.0 | 0.00 | 1.57 | 3.14 | 88 | 1013.1 |
| 20260506211831 | 57 | 195 | 0.0 | 0.0 | 0.00 | 1.57 | 3.14 | 88 | 1013.0 |
| 20260506211506 | 57 | 195 | 0.0 | 0.0 | 0.00 | 3.14 | 3.14 | 88 | 1013.0 |
| 20260506211312 | 58 | 195 | 0.0 | 0.0 | 0.00 | 1.57 | 3.14 | 88 | 1013.0 |
| 20260506210813 | 58 | 195 | 0.0 | 0.0 | 0.00 | 1.57 | 3.14 | 88 | 1013.0 |
| 20260506210321 | 58 | 195 | 0.0 | 0.0 | 0.00 | 1.57 | 3.14 | 88 | 1013.0 |
| 20260506210101 | 57 | 195 | 0.0 | 0.0 | 0.00 | 3.14 | 3.14 | 88 | 1012.9 |
| 20260506205849 | 58 | 195 | 0.0 | 0.0 | 0.00 | 1.57 | 3.14 | 88 | 1013.0 |
| 20260506205325 | 58 | 195 | 0.0 | 0.0 | 0.00 | 1.57 | 3.14 | 88 | 1012.9 |
| 20260506204826 | 58 | 195 | 0.0 | 0.0 | 0.00 | 1.57 | 3.14 | 87 | 1012.9 |
| 20260506204520 | 57 | 195 | 0.0 | 0.0 | 0.00 | 3.14 | 3.14 | 87 | 1012.8 |
| 20260506204312 | 58 | 195 | 0.0 | 0.0 | 0.00 | 1.57 | 3.14 | 87 | 1013.0 |
| 20260506203834 | 58 | 195 | 0.0 | 0.0 | 0.00 | 1.57 | 3.14 | 87 | 1012.8 |
| 20260506203320 | 58 | 195 | 0.0 | 0.0 | 0.00 | 1.57 | 3.14 | 87 | 1012.7 |
| 20260506203047 | 58 | 195 | 0.0 | 0.0 | 0.00 | 3.14 | 3.14 | 87 | 1012.7 |
| 20260506202846 | 58 | 195 | 0.0 | 0.0 | 0.00 | 1.57 | 3.14 | 87 | 1012.7 |
| 20260506202321 | 58 | 195 | 0.0 | 0.0 | 0.00 | 1.57 | 3.14 | 86 | 1012.6 |
| 20260506201829 | 59 | 195 | 0.0 | 0.0 | 0.00 | 1.57 | 3.14 | 86 | 1012.5 |
| 20260506201600 | 58 | 195 | 0.0 | 0.0 | 0.00 | 3.14 | 3.14 | 86 | 1012.5 |
| 20260506201354 | 59 | 195 | 0.0 | 0.0 | 0.00 | 1.57 | 3.14 | 86 | 1012.6 |
| 20260506200813 | 59 | 195 | 0.0 | 0.0 | 0.00 | 1.57 | 3.14 | 86 | 1012.6 |
| 20260506200339 | 59 | 195 | 0.0 | 0.0 | 0.00 | 1.57 | 3.14 | 86 | 1012.6 |
| 20260506200015 | 59 | 195 | 0.0 | 0.0 | 0.00 | 3.14 | 3.14 | 86 | 1012.5 |
| 20260506195815 | 59 | 195 | 0.0 | 0.0 | 0.00 | 1.57 | 3.14 | 85 | 1012.6 |
| 20260506195332 | 60 | 195 | 0.0 | 0.0 | 0.00 | 1.57 | 3.14 | 85 | 1012.3 |
| 20260506194817 | 60 | 195 | 0.0 | 0.0 | 0.00 | 1.57 | 3.14 | 85 | 1012.3 |
| 20260506194619 | 59 | 195 | 0.0 | 0.0 | 0.00 | 3.14 | 3.14 | 84 | 1012.2 |
| 20260506194316 | 60 | 195 | 0.0 | 0.0 | 0.00 | 1.57 | 3.14 | 84 | 1012.1 |
| 20260506193908 | 60 | 195 | 0.0 | 0.0 | 0.00 | 1.57 | 3.14 | 84 | 1012.1 |
| 20260506193831 | 60 | 195 | 0.0 | 0.0 | 0.00 | 1.57 | 3.14 | 84 | 1012.1 |
| 20260506193321 | 60 | 195 | 0.0 | 0.0 | 0.00 | 1.57 | 3.14 | 84 | 1011.9 |
| 20260506193014 | 60 | 195 | 0.0 | 0.0 | 0.00 | 3.14 | 3.14 | 84 | 1012.0 |
| 20260506192822 | 61 | 195 | 0.0 | 0.0 | 0.00 | 1.57 | 3.14 | 84 | 1012.0 |
| 20260506192345 | 61 | 195 | 0.0 | 0.0 | 0.00 | 1.57 | 3.14 | 84 | 1012.0 |
| 20260506191848 | 61 | 195 | 0.0 | 0.0 | 0.00 | 1.57 | 3.14 | 83 | 1011.8 |
| 20260506191505 | 60 | 195 | 0.0 | 0.0 | 0.00 | 3.14 | 3.14 | 83 | 1011.8 |
| 20260506191340 | 61 | 195 | 0.0 | 0.0 | 0.00 | 1.57 | 3.14 | 83 | 1011.8 |
| 20260506190841 | 61 | 195 | 0.0 | 0.0 | 0.00 | 1.57 | 3.14 | 83 | 1011.7 |
| 20260506190332 | 61 | 195 | 0.0 | 0.0 | 0.00 | 1.57 | 3.14 | 82 | 1011.6 |
| 20260506190055 | 61 | 195 | 0.0 | 0.0 | 0.00 | 3.17 | 3.14 | 82 | 1011.4 |
| 20260506185856 | 61 | 195 | 0.0 | 0.0 | 0.00 | 1.58 | 3.14 | 82 | 1011.5 |
| 20260506185335 | 61 | 195 | 0.0 | 0.0 | 0.00 | 1.58 | 3.14 | 82 | 1011.4 |
| 20260506184828 | 62 | 195 | 0.0 | 0.0 | 0.00 | 1.58 | 3.14 | 81 | 1011.4 |
| 20260506184502 | 61 | 195 | 0.0 | 0.0 | 0.00 | 3.17 | 3.14 | 81 | 1011.3 |
| 20260506184325 | 62 | 195 | 0.0 | 0.0 | 0.00 | 1.58 | 3.14 | 81 | 1011.4 |
| 20260506183825 | 62 | 195 | 0.0 | 0.0 | 0.00 | 1.58 | 3.14 | 80 | 1011.4 |
| 20260506183313 | 62 | 195 | 0.0 | 0.0 | 0.00 | 1.58 | 3.14 | 79 | 1011.4 |
| 20260506183103 | 61 | 195 | 0.0 | 0.0 | 0.00 | 3.17 | 3.14 | 79 | 1011.3 |
| 20260506182815 | 62 | 195 | 0.0 | 0.0 | 0.00 | 1.58 | 3.14 | 78 | 1011.2 |
| 20260506182317 | 62 | 195 | 0.0 | 0.0 | 0.00 | 1.58 | 3.14 | 78 | 1011.2 |
| 20260506181838 | 62 | 195 | 0.0 | 0.0 | 0.00 | 1.58 | 3.14 | 78 | 1011.2 |
| 20260506181509 | 62 | 195 | 0.0 | 0.0 | 0.00 | 3.17 | 3.14 | 78 | 1011.2 |
| 20260506181314 | 62 | 195 | 0.0 | 0.0 | 0.00 | 1.58 | 3.14 | 78 | 1011.1 |
| 20260506180813 | 63 | 195 | 0.0 | 0.0 | 0.00 | 1.58 | 3.14 | 78 | 1011.0 |
| 20260506180320 | 63 | 195 | 0.0 | 0.0 | 0.00 | 1.58 | 3.14 | 78 | 1011.1 |
| 20260506180058 | 62 | 195 | 0.0 | 0.0 | 0.00 | 3.17 | 3.14 | 78 | 1011.0 |
| 20260506175821 | 63 | 195 | 0.0 | 0.0 | 0.00 | 1.58 | 3.14 | 77 | 1011.2 |
| 20260506175327 | 63 | 195 | 0.0 | 0.0 | 0.00 | 1.58 | 3.14 | 76 | 1011.0 |
| 20260506174850 | 63 | 195 | 0.0 | 0.0 | 0.00 | 1.58 | 3.14 | 76 | 1011.0 |
| 20260506174526 | 63 | 195 | 0.0 | 0.0 | 0.00 | 3.17 | 3.14 | 76 | 1010.9 |
| 20260506174335 | 63 | 195 | 0.0 | 0.0 | 0.00 | 1.58 | 3.14 | 76 | 1010.9 |
| 20260506173837 | 63 | 195 | 0.0 | 0.0 | 0.00 | 1.58 | 3.14 | 76 | 1010.8 |
| 20260506173338 | 64 | 195 | 0.0 | 0.0 | 0.00 | 1.58 | 3.14 | 74 | 1010.8 |
| 20260506173013 | 63 | 195 | 0.0 | 0.0 | 0.00 | 3.17 | 3.14 | 74 | 1010.8 |
| 20260506172826 | 64 | 195 | 0.0 | 0.0 | 0.00 | 1.58 | 3.14 | 74 | 1010.8 |
| 20260506172326 | 65 | 195 | 0.0 | 0.0 | 0.00 | 1.58 | 3.14 | 74 | 1010.8 |
| 20260506171812 | 64 | 195 | 0.0 | 0.0 | 0.00 | 1.58 | 3.14 | 75 | 1010.8 |
| 20260506171504 | 64 | 195 | 0.0 | 0.0 | 0.00 | 3.17 | 3.14 | 75 | 1010.7 |
| 20260506171315 | 64 | 195 | 0.0 | 0.0 | 0.00 | 1.58 | 3.14 | 74 | 1010.7 |
| 20260506170822 | 64 | 195 | 0.0 | 0.0 | 0.00 | 1.58 | 3.14 | 75 | 1010.7 |
| 20260506170349 | 64 | 195 | 0.0 | 4.0 | 0.00 | 1.58 | 3.14 | 74 | 1010.8 |
| 20260506170011 | 64 | 195 | 0.0 | 4.0 | 0.00 | 3.17 | 3.14 | 74 | 1010.8 |
| 20260506165826 | 64 | 195 | 1.0 | 4.0 | 0.00 | 1.58 | 3.14 | 74 | 1010.8 |
| 20260506165327 | 64 | 195 | 0.0 | 1.0 | 0.00 | 1.58 | 3.14 | 74 | 1011.0 |
| 20260506164855 | 64 | 195 | 0.0 | 1.0 | 0.00 | 1.58 | 3.14 | 75 | 1010.9 |
| 20260506164520 | 64 | 195 | 0.0 | 2.0 | 0.00 | 3.17 | 3.14 | 75 | 1010.9 |
| 20260506164322 | 64 | 195 | 0.0 | 2.0 | 0.00 | 1.58 | 3.14 | 75 | 1011.0 |
| 20260506163930 | 64 | 195 | 1.0 | 4.0 | 0.00 | 1.58 | 3.14 | 74 | 1011.0 |
| 20260506163848 | 64 | 195 | 1.0 | 4.0 | 0.00 | 1.58 | 3.14 | 74 | 1011.0 |
| 20260506163334 | 64 | 195 | 1.0 | 4.0 | 0.00 | 1.58 | 3.14 | 73 | 1010.9 |
| 20260506163102 | 64 | 195 | 0.0 | 4.0 | 0.00 | 3.17 | 3.14 | 73 | 1010.9 |
| 20260506162844 | 65 | 195 | 1.0 | 4.0 | 0.00 | 1.58 | 3.14 | 72 | 1010.9 |
| 20260506162316 | 65 | 195 | 0.0 | 6.0 | 0.00 | 1.58 | 3.14 | 73 | 1010.9 |
| 20260506161818 | 65 | 195 | 2.0 | 6.0 | 0.00 | 1.58 | 3.14 | 70 | 1010.9 |
| 20260506161540 | 65 | 195 | 0.0 | 4.0 | 0.00 | 3.17 | 3.14 | 71 | 1010.8 |
| 20260506161320 | 65 | 195 | 1.0 | 5.0 | 0.00 | 1.58 | 3.14 | 70 | 1010.9 |
| 20260506160828 | 66 | 195 | 1.0 | 5.0 | 0.00 | 1.58 | 3.14 | 69 | 1010.8 |
| 20260506160330 | 66 | 195 | 1.0 | 5.0 | 0.00 | 1.58 | 3.14 | 68 | 1010.9 |
| 20260506160026 | 66 | 195 | 1.0 | 7.0 | 0.00 | 3.17 | 3.14 | 68 | 1010.8 |
| 20260506155836 | 67 | 195 | 1.0 | 7.0 | 0.00 | 1.58 | 3.14 | 68 | 1010.8 |
| 20260506155337 | 66 | 195 | 3.0 | 7.0 | 0.00 | 1.58 | 3.14 | 67 | 1010.9 |
| 20260506154825 | 66 | 195 | 3.0 | 7.0 | 0.00 | 1.58 | 3.14 | 67 | 1010.9 |
| 20260506154605 | 65 | 195 | 2.0 | 7.0 | 0.00 | 3.17 | 3.14 | 66 | 1010.8 |
| 20260506154327 | 66 | 195 | 3.0 | 7.0 | 0.00 | 1.58 | 3.14 | 67 | 1010.9 |
| 20260506153833 | 66 | 195 | 3.0 | 7.0 | 0.00 | 1.58 | 3.14 | 67 | 1010.8 |
| 20260506153332 | 66 | 287 | 3.0 | 8.0 | 0.00 | 1.58 | 3.14 | 66 | 1010.9 |
| 20260506153046 | 66 | 277 | 2.0 | 11.0 | 0.00 | 3.17 | 3.14 | 65 | 1010.9 |
| 20260506152838 | 66 | 240 | 3.0 | 11.0 | 0.00 | 1.58 | 3.14 | 64 | 1011.0 |
| 20260506152327 | 67 | 195 | 5.0 | 10.0 | 0.00 | 1.58 | 3.14 | 60 | 1010.8 |
| 20260506151835 | 67 | 299 | 5.0 | 10.0 | 0.00 | 1.58 | 3.14 | 59 | 1010.8 |
| 20260506151506 | 67 | 193 | 4.0 | 10.0 | 0.00 | 3.17 | 3.14 | 57 | 1010.8 |
| 20260506151315 | 68 | 272 | 4.0 | 10.0 | 0.00 | 1.58 | 3.14 | 58 | 1010.8 |
| 20260506150823 | 68 | 195 | 2.0 | 7.0 | 0.00 | 1.58 | 3.14 | 61 | 1010.8 |
| 20260506150324 | 68 | 195 | 2.0 | 8.0 | 0.00 | 1.58 | 3.14 | 62 | 1010.9 |
| 20260506150038 | 67 | 195 | 3.0 | 8.0 | 0.00 | 3.17 | 3.14 | 62 | 1010.8 |
| 20260506145846 | 67 | 195 | 2.0 | 8.0 | 0.00 | 1.58 | 3.14 | 65 | 1010.9 |
| 20260506145326 | 67 | 195 | 3.0 | 9.0 | 0.00 | 1.58 | 3.14 | 66 | 1010.9 |
| 20260506144835 | 67 | 194 | 3.0 | 11.0 | 0.00 | 1.58 | 3.14 | 68 | 1010.8 |
| 20260506144501 | 66 | 194 | 3.0 | 11.0 | 0.00 | 3.17 | 3.14 | 68 | 1010.7 |
| 20260506144316 | 67 | 195 | 2.0 | 9.0 | 0.00 | 1.58 | 3.14 | 69 | 1010.8 |
| 20260506143823 | 67 | 195 | 4.0 | 15.0 | 0.00 | 1.58 | 3.14 | 70 | 1010.8 |
| 20260506143320 | 67 | 194 | 3.0 | 15.0 | 0.00 | 1.58 | 3.14 | 74 | 1010.7 |
| 20260506143033 | 66 | 281 | 4.0 | 10.0 | 0.00 | 3.17 | 3.14 | 74 | 1010.6 |
| 20260506142830 | 67 | 24 | 4.0 | 11.0 | 0.00 | 1.58 | 3.14 | 76 | 1010.7 |
| 20260506142332 | 66 | 195 | 5.0 | 11.0 | 0.00 | 1.58 | 3.14 | 76 | 1010.6 |
| 20260506141839 | 67 | 283 | 6.0 | 11.0 | 0.00 | 1.58 | 3.14 | 77 | 1010.4 |
| 20260506141522 | 66 | 194 | 4.0 | 10.0 | 0.00 | 3.17 | 3.14 | 79 | 1010.6 |
| 20260506141321 | 67 | 194 | 3.0 | 10.0 | 0.00 | 1.58 | 3.14 | 80 | 1010.6 |
| 20260506140823 | 66 | 237 | 3.0 | 11.0 | 0.00 | 1.58 | 3.14 | 82 | 1010.6 |
| 20260506140329 | 66 | 195 | 2.0 | 9.0 | 0.00 | 1.58 | 3.14 | 83 | 1010.7 |
| 20260506140012 | 65 | 195 | 4.0 | 9.0 | 0.00 | 3.17 | 3.14 | 82 | 1010.7 |
| 20260506135830 | 66 | 195 | 4.0 | 9.0 | 0.00 | 1.58 | 3.14 | 82 | 1010.7 |
| 20260506135332 | 66 | 195 | 4.0 | 8.0 | 0.00 | 1.58 | 3.14 | 82 | 1010.6 |
| 20260506134820 | 66 | 195 | 4.0 | 10.0 | 0.00 | 1.58 | 3.14 | 82 | 1010.7 |
| 20260506134503 | 66 | 194 | 1.0 | 10.0 | 0.00 | 3.17 | 3.14 | 83 | 1010.6 |
| 20260506134321 | 66 | 194 | 3.0 | 10.0 | 0.00 | 1.58 | 3.14 | 82 | 1010.6 |
| 20260506133839 | 66 | 195 | 2.0 | 5.0 | 0.00 | 1.58 | 3.14 | 82 | 1010.7 |
| 20260506133320 | 66 | 195 | 2.0 | 6.0 | 0.00 | 1.58 | 3.14 | 82 | 1010.7 |
| 20260506133020 | 66 | 195 | 2.0 | 7.0 | 0.00 | 3.17 | 3.14 | 82 | 1010.7 |
| 20260506132843 | 66 | 195 | 3.0 | 7.0 | 0.04 | 1.58 | 3.14 | 82 | 1010.8 |
| 20260506132330 | 66 | 195 | 2.0 | 9.0 | 1.14 | 1.58 | 3.14 | 82 | 1010.7 |
| 20260506131827 | 67 | 195 | 4.0 | 9.0 | 1.18 | 1.58 | 3.14 | 81 | 1010.7 |
| 20260506131547 | 66 | 207 | 3.0 | 10.0 | 0.28 | 3.17 | 3.14 | 83 | 1010.8 |
| 20260506131330 | 67 | 195 | 2.0 | 10.0 | 2.05 | 1.58 | 3.14 | 84 | 1010.8 |
| 20260506130828 | 66 | 195 | 3.0 | 10.0 | 2.09 | 1.58 | 3.14 | 84 | 1010.9 |
| 20260506130337 | 65 | 193 | 3.0 | 9.0 | 2.76 | 1.58 | 3.14 | 86 | 1010.9 |
| 20260506130014 | 64 | 207 | 3.0 | 9.0 | 0.61 | 3.17 | 3.14 | 86 | 1011.0 |
| 20260506125819 | 64 | 195 | 5.0 | 9.0 | 3.15 | 1.58 | 3.14 | 86 | 1010.9 |
| 20260506125320 | 63 | 254 | 3.0 | 9.0 | 3.27 | 1.58 | 3.14 | 87 | 1010.9 |
| 20260506124829 | 62 | 251 | 3.0 | 9.0 | 3.27 | 1.58 | 3.14 | 87 | 1010.9 |
| 20260506123832 | 61 | 195 | 0.0 | 5.0 | 3.27 | 1.58 | 3.14 | 87 | 1011.0 |
| 20260506123333 | 60 | 195 | 0.0 | 5.0 | 3.27 | 1.58 | 3.14 | 87 | 1010.9 |
| 20260506123100 | 59 | 195 | 1.0 | 5.0 | 0.65 | 3.17 | 3.14 | 87 | 1010.8 |
| 20260506122814 | 59 | 195 | 1.0 | 3.0 | 3.19 | 1.57 | 3.13 | 86 | 1010.9 |
| 20260506122316 | 59 | 195 | 0.0 | 9.0 | 2.13 | 1.46 | 2.91 | 83 | 1011.1 |
| 20260506121824 | 59 | 195 | 1.0 | 9.0 | 2.09 | 1.46 | 2.91 | 82 | 1010.9 |
| 20260506121654 | 59 | 194 | 3.0 | 9.0 | 0.38 | 2.89 | 2.87 | 82 | 1011.0 |
| 20260506121344 | 60 | 226 | 0.0 | 8.0 | 1.22 | 1.37 | 2.73 | 82 | 1011.3 |
| 20260506120840 | 61 | 281 | 1.0 | 13.0 | 1.18 | 1.37 | 2.72 | 81 | 1011.1 |
| 20260506120329 | 63 | 195 | 7.0 | 13.0 | 0.51 | 1.30 | 2.59 | 80 | 1011.2 |
| 20260506120056 | 64 | 312 | 3.0 | 10.0 | 0.06 | 2.57 | 2.54 | 81 | 1010.9 |
| 20260506115831 | 65 | 257 | 3.0 | 10.0 | 0.08 | 1.26 | 2.50 | 81 | 1011.0 |
| 20260506115324 | 66 | 195 | 3.0 | 8.0 | 0.00 | 1.25 | 2.49 | 81 | 1010.7 |
| 20260506114829 | 67 | 195 | 3.0 | 9.0 | 0.00 | 1.25 | 2.49 | 79 | 1010.7 |
| 20260506114509 | 67 | 195 | 2.0 | 9.0 | 0.00 | 2.50 | 2.49 | 78 | 1010.6 |
| 20260506114329 | 67 | 195 | 4.0 | 10.0 | 0.00 | 1.25 | 2.49 | 76 | 1010.7 |
| 20260506113831 | 68 | 195 | 3.0 | 10.0 | 0.00 | 1.25 | 2.49 | 77 | 1010.7 |
| 20260506113318 | 69 | 195 | 3.0 | 9.0 | 0.00 | 1.25 | 2.49 | 75 | 1010.7 |
| 20260506113102 | 69 | 195 | 2.0 | 9.0 | 0.00 | 2.50 | 2.49 | 75 | 1010.6 |
| 20260506112836 | 69 | 195 | 4.0 | 13.0 | 0.00 | 1.25 | 2.49 | 72 | 1010.7 |
| 20260506112327 | 69 | 193 | 5.0 | 13.0 | 0.00 | 1.25 | 2.49 | 72 | 1010.6 |
| 20260506111828 | 69 | 304 | 3.0 | 9.0 | 0.00 | 1.25 | 2.49 | 74 | 1010.7 |
| 20260506111526 | 69 | 195 | 3.0 | 12.0 | 0.00 | 2.50 | 2.49 | 74 | 1010.7 |
| 20260506111330 | 69 | 195 | 4.0 | 12.0 | 0.00 | 1.25 | 2.49 | 74 | 1010.6 |
| 20260506110830 | 68 | 195 | 4.0 | 12.0 | 0.00 | 1.25 | 2.49 | 75 | 1010.6 |
| 20260506110339 | 68 | 195 | 3.0 | 9.0 | 0.00 | 1.25 | 2.49 | 74 | 1010.7 |
| 20260506110018 | 68 | 195 | 3.0 | 10.0 | 0.00 | 3.14 | 2.49 | 74 | 1010.6 |
| 20260506105820 | 69 | 195 | 2.0 | 12.0 | 0.00 | 1.57 | 2.49 | 74 | 1010.6 |
| 20260506105322 | 69 | 194 | 3.0 | 17.0 | 0.00 | 1.57 | 2.49 | 73 | 1010.7 |
| 20260506104827 | 69 | 197 | 5.0 | 17.0 | 0.00 | 1.57 | 2.49 | 72 | 1010.6 |
| 20260506104503 | 69 | 194 | 2.0 | 14.0 | 0.00 | 3.14 | 2.49 | 75 | 1010.7 |
| 20260506104327 | 69 | 194 | 5.0 | 14.0 | 0.00 | 1.57 | 2.49 | 74 | 1010.6 |
| 20260506103837 | 68 | 195 | 5.0 | 15.0 | 0.00 | 1.57 | 2.49 | 74 | 1010.8 |
| 20260506103317 | 68 | 195 | 4.0 | 12.0 | 0.00 | 1.57 | 2.49 | 74 | 1010.8 |
| 20260506103047 | 68 | 232 | 3.0 | 14.0 | 0.00 | 3.14 | 2.49 | 74 | 1011.0 |
| 20260506102846 | 69 | 195 | 5.0 | 14.0 | 0.00 | 1.57 | 2.49 | 73 | 1011.0 |
| 20260506102327 | 69 | 194 | 3.0 | 14.0 | 0.00 | 1.57 | 2.49 | 74 | 1010.8 |
| 20260506101836 | 69 | 196 | 6.0 | 13.0 | 0.00 | 1.57 | 2.49 | 72 | 1010.7 |
| 20260506101546 | 69 | 264 | 3.0 | 11.0 | 0.00 | 3.14 | 2.49 | 73 | 1010.8 |
| 20260506101317 | 69 | 195 | 4.0 | 12.0 | 0.00 | 1.57 | 2.49 | 73 | 1010.7 |
| 20260506100832 | 69 | 195 | 5.0 | 12.0 | 0.00 | 1.57 | 2.49 | 73 | 1010.8 |
| 20260506100319 | 69 | 193 | 4.0 | 12.0 | 0.00 | 1.57 | 2.49 | 74 | 1011.0 |
| 20260506100001 | 68 | 195 | 4.0 | 12.0 | 0.00 | 3.31 | 2.49 | 75 | 1010.7 |
| 20260506095819 | 68 | 195 | 5.0 | 12.0 | 0.00 | 1.65 | 2.49 | 74 | 1010.5 |
| 20260506095320 | 68 | 195 | 4.0 | 10.0 | 0.00 | 1.65 | 2.49 | 74 | 1010.8 |
| 20260506094848 | 68 | 194 | 3.0 | 10.0 | 0.00 | 1.65 | 2.49 | 75 | 1010.6 |
| 20260506094533 | 68 | 195 | 3.0 | 8.0 | 0.00 | 3.31 | 2.49 | 76 | 1010.6 |
| 20260506094336 | 68 | 195 | 2.0 | 8.0 | 0.00 | 1.65 | 2.49 | 76 | 1010.6 |
| 20260506093837 | 67 | 195 | 2.0 | 8.0 | 0.00 | 1.65 | 2.49 | 76 | 1010.6 |
| 20260506093317 | 67 | 195 | 4.0 | 8.0 | 0.00 | 1.65 | 2.49 | 75 | 1010.6 |
| 20260506093053 | 67 | 195 | 4.0 | 8.0 | 0.00 | 3.31 | 2.49 | 76 | 1010.6 |
| 20260506092817 | 67 | 195 | 2.0 | 12.0 | 0.00 | 1.65 | 2.49 | 77 | 1010.6 |
| 20260506092326 | 66 | 195 | 3.0 | 12.0 | 0.04 | 1.65 | 2.49 | 77 | 1010.7 |
| 20260506091828 | 66 | 195 | 4.0 | 12.0 | 0.04 | 1.65 | 2.49 | 79 | 1010.5 |
| 20260506091544 | 65 | 193 | 4.0 | 12.0 | 0.01 | 3.31 | 2.49 | 78 | 1010.5 |
| 20260506091337 | 65 | 195 | 4.0 | 12.0 | 0.04 | 1.65 | 2.49 | 79 | 1010.5 |
| 20260506090817 | 65 | 193 | 2.0 | 8.0 | 0.04 | 1.65 | 2.49 | 79 | 1010.6 |
| 20260506090319 | 65 | 195 | 2.0 | 5.0 | 0.04 | 1.65 | 2.49 | 79 | 1010.5 |
| 20260506090019 | 65 | 195 | 0.0 | 5.0 | 0.01 | 3.34 | 2.49 | 79 | 1010.5 |
| 20260506085827 | 65 | 195 | 1.0 | 7.0 | 0.04 | 1.66 | 2.49 | 79 | 1010.5 |
| 20260506085335 | 65 | 195 | 1.0 | 7.0 | 0.04 | 1.66 | 2.49 | 79 | 1010.6 |
| 20260506084817 | 66 | 195 | 3.0 | 7.0 | 0.04 | 1.66 | 2.49 | 78 | 1010.5 |
| 20260506084607 | 65 | 195 | 2.0 | 7.0 | 0.01 | 3.34 | 2.49 | 78 | 1010.4 |
| 20260506084319 | 66 | 195 | 2.0 | 8.0 | 0.04 | 1.66 | 2.49 | 79 | 1010.4 |
| 20260506083907 | 66 | 195 | 3.0 | 8.0 | 0.04 | 1.66 | 2.49 | 80 | 1010.4 |
| 20260506083829 | 66 | 195 | 3.0 | 8.0 | 0.04 | 1.66 | 2.49 | 80 | 1010.4 |
| 20260506083335 | 65 | 195 | 2.0 | 10.0 | 0.04 | 1.66 | 2.49 | 82 | 1010.4 |
| 20260506083002 | 64 | 195 | 1.0 | 10.0 | 0.01 | 3.34 | 2.49 | 81 | 1010.4 |
| 20260506082815 | 65 | 195 | 3.0 | 10.0 | 0.04 | 1.66 | 2.49 | 81 | 1010.5 |
| 20260506082323 | 64 | 195 | 2.0 | 8.0 | 0.00 | 1.66 | 2.48 | 82 | 1010.5 |
| 20260506081825 | 64 | 194 | 2.0 | 9.0 | 0.00 | 1.66 | 2.48 | 82 | 1010.6 |
| 20260506081540 | 63 | 195 | 3.0 | 9.0 | 0.00 | 3.33 | 2.48 | 83 | 1010.5 |
| 20260506081332 | 63 | 194 | 2.0 | 9.0 | 0.00 | 1.66 | 2.48 | 83 | 1010.5 |
| 20260506080813 | 63 | 195 | 1.0 | 5.0 | 0.00 | 1.66 | 2.48 | 84 | 1010.5 |
| 20260506080340 | 62 | 195 | 2.0 | 5.0 | 0.00 | 1.66 | 2.48 | 85 | 1010.5 |
| 20260506080107 | 62 | 195 | 0.0 | 4.0 | 0.00 | 3.36 | 2.48 | 85 | 1010.5 |
| 20260506073324 | 62 | 195 | 1.0 | 7.0 | 0.00 | 1.68 | 2.48 | 86 | 1010.5 |
| 20260506073022 | 61 | 195 | 1.0 | 7.0 | 0.00 | 3.36 | 2.48 | 86 | 1010.4 |
| 20260506072833 | 62 | 195 | 0.0 | 7.0 | 0.00 | 1.68 | 2.48 | 86 | 1010.4 |
| 20260506072329 | 62 | 195 | 1.0 | 8.0 | 0.00 | 1.68 | 2.48 | 86 | 1010.3 |
| 20260506071838 | 61 | 195 | 2.0 | 8.0 | 0.00 | 1.68 | 2.48 | 86 | 1010.3 |
| 20260506071511 | 61 | 195 | 2.0 | 8.0 | 0.00 | 3.36 | 2.48 | 87 | 1010.3 |
| 20260506071320 | 61 | 195 | 2.0 | 7.0 | 0.00 | 1.68 | 2.48 | 87 | 1010.3 |
| 20260506070842 | 61 | 193 | 1.0 | 7.0 | 0.00 | 1.68 | 2.48 | 87 | 1010.2 |
| 20260506070318 | 61 | 193 | 1.0 | 7.0 | 0.00 | 1.68 | 2.48 | 87 | 1010.3 |
| 20260506062357 | 59 | 192 | 1.0 | 7.0 | 0.63 | 1.68 | 2.48 | 87 | 1010.3 |
| 20260506061816 | 59 | 194 | 0.0 | 1.0 | 0.98 | 1.68 | 2.48 | 87 | 1010.3 |
| 20260506061544 | 59 | 194 | 0.0 | 0.0 | 0.20 | 3.36 | 2.48 | 87 | 1010.3 |
| 20260506061323 | 59 | 194 | 0.0 | 3.0 | 0.98 | 1.68 | 2.48 | 87 | 1010.3 |
| 20260506060821 | 59 | 194 | 0.0 | 3.0 | 0.98 | 1.68 | 2.48 | 87 | 1010.2 |
| 20260506060315 | 59 | 194 | 1.0 | 3.0 | 0.98 | 1.68 | 2.48 | 87 | 1010.2 |